Location: Congrier
(47.8099°N, 1.1170°W)
Time: 01:01:07
(UTC+00:00)

Cosmos 2278 - Pass Details

Date: 28 January 2023
Orbit: 838 x 853 km, 71.1° (Epoch: 21 March)

Event Time Altitude Azimuth Distance (km) Brightness Sun altitude
Rises 19:22:20 0° 217° (SW) 3,386 7.4 -24.1°
Reaches altitude 10° 19:24:47 10° 221° (SW) 2,458 6.6 -24.5°
Maximum altitude 19:30:22 61° 301° (WNW) 962 4.1 -25.5°
Enters shadow 19:33:36 26° 14° (NNE) 1,629 5.0 -26.0°
